Location: Colle San Luigi
(43.5500°N, 13.4167°E)
Time: 09:51:51
(UTC+00:00)

Cosmos 407 Rocket - Pass Details

Date: 09 April 2020
Orbit: 743 x 787 km, 74.0° (Epoch: 05 June)

Event Time Altitude Azimuth Distance (km) Brightness Sun altitude
Rises 19:02:10 0° 210° (SSW) 3,187 6.8 -14.4°
Reaches altitude 10° 19:04:34 10° 214° (SSW) 2,262 6.0 -14.8°
Maximum altitude 19:09:36 59° 293° (WNW) 864 4.1 -15.6°
Drops below altitude 10° 19:14:40 10° 13° (NNE) 2,265 6.1 -16.4°
Sets 19:17:04 0° 18° (NNE) 3,193 6.9 -16.8°
